Location: Barcelona
(41.3830°N, 2.1830°E)
Time: 14:38:54
(UTC+02:00)

ISS - Pass Details

Date: 21 March 2017
Orbit: 400 x 408 km, 51.6° (Epoch: 25 July)

Event Time Altitude Azimuth Distance (km) Brightness Sun altitude
Exits shadow 04:47:21 31° 20° (NNE) 761 -2.1 -23.8°
Drops below altitude 10° 04:50:32 10° 90° (E) 1,494 0.0 -23.2°
Enters shadow 05:48:41 -65° 305° (NW) 12,041 3.6 -12.8°
Maximum altitude 06:24:08 38° 223° (SW) 658 -3.1 -6.2°
